User: anonymous   Login
Location: Unspecified
(0.0000°N, 0.0000°E)
Time: 00:59:00
(UTC+00:00)
Language:

STARLINK-31531 - Orbit

View from above orbital plane
View from above orbital plane
View from above satellite
View from above satellite

Ground track
Ground track

The orbit is defined by the following mean orbital elements,

1 59477U          26145.35523010 +.00000000 +00000-0 -16400-3 0 00007
2 59477  42.9969 266.3992 0000761 294.1374  65.9398 15.27562361    02
Epoch (UTC): 25 May 2026 08:31:31
Eccentricity: 0.0000761
inclination: 42.9969°
perigee height: 483 km
apogee height: 484 km
right ascension of ascending node: 266.3992°
argument of perigee: 294.1374°
revolutions per day: 15.27562361
mean anomaly at epoch: 65.9398°

The dashed part of the orbit path shows where the satellite is in the earth's shadow,  

DLR